Location: Archemont
(49.1579°N, 1.7598°E)
Time: 20:52:50
(UTC+00:00)

Cosmos 2322 - Pass Details

Date: 03 February 2023
Orbit: 841 x 854 km, 71.0° (Epoch: 21 March)

Event Time Altitude Azimuth Distance (km) Brightness Sun altitude
Rises 18:53:17 0° 181° (S) 3,407 6.9 -19.9°
Reaches altitude 10° 18:55:52 10° 173° (S) 2,476 6.1 -20.3°
Enters shadow 19:00:34 37° 120° (ESE) 1,295 4.2 -21.1°
